Location: Arthez
(43.0833°N, 0.2500°W)
Time: 15:15:53
(UTC+00:00)

NOSS 3-1 (A) - Pass Details

Date: 12 December 2023
Orbit: 665 x 1546 km, 63.4° (Epoch: 18 February)

Event Time Altitude Azimuth Distance (km) Brightness Sun altitude
Exits shadow 04:47:48 16° 357° (N) 2,236 5.3 -27.4°
Drops below altitude 10° 04:50:16 10° 18° (NNE) 2,752 6.0 -27.0°
Sets 04:54:11 0° 37° (NE) 3,900 7.0 -26.2°
